Terminal Aerodrome Forecast
Issued by NWS

Home | Current Version | Previous Version | Text Only | Print | Product List | Glossary On
Versions: 1 2 3 4 5 6 7 8 9 10 11 12 13 14 15 16 17 18 19 20 21 22 23 24 25 26 27 28 29 30 31 32 33 34 35 36 37 38 39 40 41 42 43 44 45 46 47 48 49 50
000
FTUS46 KEKA 271246 AAA
TAFACV
TAF AMD
KACV 271246Z 2713/2812 00000KT P6SM SCT006 OVC010
      TEMPO 2713/2716 3SM BR BKN003
     FM271800 29006KT 6SM HZ BKN005
     FM272200 29008KT P6SM SCT010
     FM280300 26005KT 6SM BR BKN008
     FM280800 VRB03KT 1SM BR OVC004=

USA.gov is the U.S. government's official web portal to all federal, state and local government web resources and services.